This is the latest recevied weather packets stored in our database for station/object HS6PNA-1. If no packets are shown the sender has not sent any weather packets the latest 10 day(s).
| Time | Temp. | Humidity | Pressure | Rain* | Wind** | Luminosity | Snow |
|---|---|---|---|---|---|---|---|
| 1788152424 | 88° F | 78% | 753.1 mmHg | - | - | 172 W/m² | - |
| 1788151499 | 88° F | 83% | 753.1 mmHg | - | - | 253 W/m² | - |
| 1788150574 | 88° F | 81% | 753.1 mmHg | - | - | 150 W/m² | - |
| 1788149650 | 88° F | 82% | 753.1 mmHg | - | - | 121 W/m² | - |
| 1788148726 | 88° F | 85% | 753.1 mmHg | - | - | 122 W/m² | - |
| 1788147801 | 87° F | 83% | 753.1 mmHg | - | - | 116 W/m² | - |
| 1788146877 | 87° F | 84% | 753.1 mmHg | - | - | 110 W/m² | - |
| 1788145952 | 87° F | 85% | 753.8 mmHg | - | - | 81 W/m² | - |
| 1788145028 | 88° F | 83% | 753.8 mmHg | - | - | 83 W/m² | - |
| 1788144103 | 88° F | 81% | 753.8 mmHg | - | - | 92 W/m² | - |
| 1788143179 | 88° F | 82% | 753.8 mmHg | - | - | 93 W/m² | - |
| 1788142254 | 87° F | 83% | 753.8 mmHg | - | - | 88 W/m² | - |
| 1788141330 | 87° F | 86% | 753.1 mmHg | - | - | 80 W/m² | - |
| 1788140405 | 85° F | 89% | 753.1 mmHg | - | - | 79 W/m² | - |
| 1788139481 | 85° F | 89% | 753.1 mmHg | - | - | 69 W/m² | - |
| 1788138556 | 85° F | 90% | 753.1 mmHg | - | - | 59 W/m² | - |
| 1788137632 | 84° F | 93% | 753.1 mmHg | - | - | 45 W/m² | - |
| 1788136707 | 84° F | 91% | 752.3 mmHg | - | - | 36 W/m² | - |
| 1788135783 | 84° F | 94% | 752.3 mmHg | - | - | 26 W/m² | - |
| 1788134858 | 84° F | 94% | 752.3 mmHg | - | - | 20 W/m² | - |
| 1788133933 | 83° F | 94% | 752.3 mmHg | - | - | 15 W/m² | - |
| 1788133009 | 84° F | 90% | 752.3 mmHg | - | - | 10 W/m² | - |
| 1788132084 | 84° F | 90% | 752.3 mmHg | - | - | 3 W/m² | - |
| 1788131160 | 84° F | 89% | 752.3 mmHg | - | - | 0 W/m² | - |
| 1788130235 | 84° F | 89% | 752.3 mmHg | - | - | 0 W/m² | - |
* Rain since midnight (hover to see other rain measurements)
** Current wind speed in m/s (hover to see current wind gust speed)